| time (UTC) | temp C | wind direction | speed KPH | gust KPH | rain 1hr cm | rain 24hr cm | rain mn cm | humidity % | barometer mb |
| 20260504194519 | 22 | 198 | 4.8 | 19.3 | 0.00 | 0.00 | 0.00 | 33 | 1010.4 |
| 20260504193024 | 22 | 228 | 3.2 | 17.7 | 0.00 | 0.00 | 0.00 | 36 | 1010.5 |
| 20260504191523 | 22 | 264 | 6.4 | 19.3 | 0.00 | 0.00 | 0.00 | 37 | 1010.7 |
| 20260504190014 | 22 | 211 | 8.0 | 17.7 | 0.00 | 0.00 | 0.00 | 36 | 1010.8 |
| 20260504184521 | 21 | 212 | 8.0 | 27.4 | 0.00 | 0.00 | 0.00 | 35 | 1011.0 |
| 20260504183027 | 21 | 238 | 8.0 | 24.1 | 0.00 | 0.00 | 0.00 | 37 | 1011.2 |
| 20260504181508 | 21 | 268 | 6.4 | 20.9 | 0.00 | 0.00 | 0.00 | 37 | 1011.4 |
| 20260504180018 | 21 | 194 | 9.7 | 25.7 | 0.00 | 0.00 | 0.00 | 38 | 1011.6 |
| 20260504171518 | 20 | 261 | 4.8 | 22.5 | 0.00 | 0.00 | 0.00 | 41 | 1012.1 |
| 20260504081508 | 6 | 269 | 0.0 | 0.0 | 0.00 | 0.00 | 0.00 | 68 | 1014.9 |
| 20260504050024 | 9 | 263 | 3.2 | 11.3 | 0.00 | 0.00 | 0.00 | 54 | 1014.6 |
| 20260504044537 | 9 | 257 | 3.2 | 11.3 | 0.00 | 0.00 | 0.00 | 54 | 1014.6 |
| 20260504043008 | 9 | 261 | 1.6 | 11.3 | 0.00 | 0.00 | 0.00 | 55 | 1014.4 |
| 20260504041517 | 9 | 275 | 1.6 | 9.7 | 0.00 | 0.00 | 0.00 | 56 | 1014.2 |
| 20260504040004 | 8 | 269 | 0.0 | 4.8 | 0.00 | 0.00 | 0.00 | 57 | 1014.2 |
| 20260504034506 | 8 | 267 | 0.0 | 6.4 | 0.00 | 0.00 | 0.00 | 59 | 1013.9 |
| 20260504033013 | 7 | 265 | 0.0 | 3.2 | 0.00 | 0.00 | 0.00 | 61 | 1013.9 |
| 20260504031518 | 7 | 265 | 0.0 | 3.2 | 0.00 | 0.00 | 0.00 | 62 | 1013.9 |
| 20260504030002 | 7 | 265 | 0.0 | 0.0 | 0.00 | 0.00 | 0.00 | 63 | 1013.8 |
| 20260504024515 | 7 | 265 | 0.0 | 1.6 | 0.00 | 0.00 | 0.00 | 66 | 1014.0 |
| 20260504023014 | 7 | 265 | 0.0 | 0.0 | 0.00 | 0.00 | 0.00 | 66 | 1013.8 |
| 20260504021531 | 7 | 265 | 0.0 | 0.0 | 0.00 | 0.00 | 0.00 | 64 | 1013.9 |
| 20260504020008 | 8 | 265 | 0.0 | 1.6 | 0.00 | 0.00 | 0.00 | 63 | 1013.8 |
| 20260504014514 | 8 | 265 | 0.0 | 0.0 | 0.00 | 0.00 | 0.00 | 59 | 1013.7 |
| 20260504013027 | 8 | 265 | 0.0 | 1.6 | 0.00 | 0.00 | 0.00 | 56 | 1013.6 |
| 20260504011521 | 10 | 265 | 0.0 | 0.0 | 0.00 | 0.00 | 0.00 | 53 | 1013.5 |
| 20260504010009 | 10 | 265 | 0.0 | 1.6 | 0.00 | 0.00 | 0.00 | 49 | 1013.2 |
| 20260504004513 | 11 | 265 | 0.0 | 0.0 | 0.00 | 0.00 | 0.00 | 47 | 1013.0 |
| 20260504003020 | 12 | 265 | 0.0 | 0.0 | 0.00 | 0.00 | 0.00 | 44 | 1012.8 |
| 20260504001524 | 12 | 265 | 0.0 | 4.8 | 0.00 | 0.00 | 0.00 | 41 | 1012.6 |
| 20260504000007 | 13 | 265 | 1.6 | 6.4 | 0.00 | 0.00 | 0.00 | 39 | 1012.5 |
| 20260503234510 | 13 | 281 | 6.4 | 14.5 | 0.00 | 0.00 | 0.00 | 37 | 1012.4 |
| 20260503233020 | 14 | 270 | 4.8 | 19.3 | 0.00 | 0.00 | 0.00 | 36 | 1012.2 |
| 20260503231526 | 14 | 271 | 8.0 | 16.1 | 0.00 | 0.00 | 0.00 | 35 | 1012.1 |
| 20260503230009 | 15 | 338 | 3.2 | 22.5 | 0.00 | 0.00 | 0.00 | 34 | 1012.0 |
| 20260503224515 | 15 | 278 | 3.2 | 24.1 | 0.00 | 0.00 | 0.00 | 35 | 1012.0 |
| 20260503223019 | 15 | 251 | 3.2 | 20.9 | 0.00 | 0.00 | 0.00 | 34 | 1011.9 |
| 20260503221505 | 15 | 263 | 6.4 | 27.4 | 0.00 | 0.00 | 0.00 | 32 | 1011.9 |
| 20260503220010 | 15 | 240 | 6.4 | 17.7 | 0.00 | 0.00 | 0.00 | 33 | 1011.9 |
| 20260503214516 | 15 | 257 | 6.4 | 17.7 | 0.00 | 0.00 | 0.00 | 33 | 1011.9 |
| 20260503213030 | 15 | 281 | 4.8 | 16.1 | 0.00 | 0.00 | 0.00 | 31 | 1011.8 |
| 20260503211514 | 15 | 271 | 12.9 | 24.1 | 0.00 | 0.00 | 0.00 | 34 | 1011.9 |
| 20260503210014 | 15 | 271 | 6.4 | 22.5 | 0.00 | 0.00 | 0.00 | 34 | 1011.9 |
| 20260503204525 | 15 | 323 | 6.4 | 20.9 | 0.00 | 0.00 | 0.00 | 33 | 1012.1 |
| 20260503203024 | 14 | 294 | 8.0 | 27.4 | 0.00 | 0.00 | 0.00 | 33 | 1012.2 |
| 20260503201523 | 15 | 232 | 8.0 | 20.9 | 0.00 | 0.00 | 0.00 | 34 | 1012.1 |
| 20260503200017 | 15 | 360 | 3.2 | 14.5 | 0.00 | 0.00 | 0.00 | 37 | 1012.0 |